Volver al catálogo

STARLINK-30098

ActivoComunicacionesVLEO
NORAD 56292·PAYLOAD·🇺🇸 United States

Lanzado Apr 19, 2023 desde Cape Canaveral Space Force Station

Loading…

Próximos Pases (próximas 24 horas)

TLE

ActualizadoSource: CelesTrak SupGP

Época: Sep 14, 2026, 21:31 UTC

1 56292C 23056G   26257.89701389  .00025712  00000+0  93132-3 0  2571
2 56292  43.0034 220.4480 0001355 258.5838 181.7002 15.27565154    14

Sigue STARLINK-30098 en tiempo real con AllMySat

Download on the App Store